AO-07 1 07530U 74089B 19095.88769635 -.00000046 00000-0 -85853-5 0 9995 2 07530 101.7361 64.3296 0012414 128.2880 288.6158 12.53637471 31277 UO-11 1 14781U 84021B 19095.61961333 .00000047 00000-0 11866-4 0 9999 2 14781 097.6184 123.8120 0008069 192.8817 167.2193 14.83073747866782 LO-19 1 20442U 90005G 19095.44276128 -.00000013 00000-0 11568-4 0 9994 2 20442 98.6424 37.5940 0012074 13.9372 346.2143 14.32921090525741 HUBBLE 1 20580U 90037B 19095.40103009 .00000523 00000-0 20997-4 0 9996 2 20580 028.4704 343.1736 0002761 048.0645 282.3555 15.09198975389567 MET-2/21 1 22782U 93055A 19095.49282844 .00000052 00000-0 33206-4 0 9993 2 22782 82.5507 221.9405 0022704 29.7602 41.0634 13.83817412292609 AO-27 1 22825U 93061C 19095.54499308 -.00000012 00000-0 13196-4 0 9992 2 22825 098.8992 082.5075 0007809 208.6532 151.4222 14.30054830331083 IO-26 1 22826U 93061D 19095.56392784 -.00000010 00000-0 14152-4 0 9996 2 22826 098.8932 082.5276 0008515 197.3949 162.6942 14.30388014331304 FO-29 1 24278U 96046B 19095.60677357 -.00000042 00000-0 -98433-5 0 9993 2 24278 098.5259 259.1073 0351297 072.2363 291.6784 13.53090119117536 NOAA-15 1 25338U 98030A 19095.59704658 .00000021 00000-0 27495-4 0 9993 2 25338 098.7534 116.9728 0011610 098.2868 261.9629 14.25900707086434 GO-32 1 25397U 98043D 19095.61359559 -.00000016 00000-0 12199-4 0 9991 2 25397 098.6829 036.6810 0000339 193.4827 166.6342 14.23662768077112 ISS 1 25544U 98067A 19095.88642635 .00001662 00000-0 34162-4 0 9991 2 25544 51.6445 0.6308 0002276 152.4562 331.4093 15.52488059164029 NO-44 1 26931U 01043C 19095.60110615 -.00000036 00000-0 17999-4 0 9992 2 26931 067.0515 194.8684 0005695 277.1302 082.9151 14.30537029914301 SO-50 1 27607U 02058C 19095.60392803 -.00000013 00000-0 19015-4 0 9997 2 27607 064.5538 276.1075 0082399 270.6216 088.5446 14.75532217875976 CO-55 1 27844U 03031E 19095.56957533 .00000037 00000-0 36615-4 0 9994 2 27844 098.6865 104.8835 0008769 242.4321 117.5966 14.22168183817711 CO-57 1 27848U 03031J 19095.47026901 .00000026 00000-0 31766-4 0 9994 2 27848 098.6944 105.2687 0008575 255.3875 104.6351 14.21764613817562 RS-22 1 27939U 03042A 19095.89551839 .00000063 00000-0 19956-4 0 9994 2 27939 98.0268 233.2005 0011605 304.7298 55.2825 14.66765775829725 NOAA-18 1 28654U 05018A 19095.60889115 .00000073 00000-0 64441-4 0 9994 2 28654 099.1056 141.4339 0014592 030.2454 329.9556 14.12413670714966 CO-58 1 28895U 05043F 19095.33455059 .00000130 00000-0 33736-4 0 9992 2 28895 097.9465 240.6650 0015931 222.7973 137.1990 14.63644594716378 Falconsat-3 1 30776U 07006E 19095.59280279 .00003050 00000-0 86761-4 0 9992 2 30776 035.4352 203.4747 0002467 178.3110 181.7625 15.35846304669284 CO-65 1 32785U 08021C 19095.86403297 .00000215 00000-0 28825-4 0 9996 2 32785 97.5497 99.0639 0014031 142.3867 217.8334 14.88272834592702 AAUSAT2 1 32788U 08021F 19095.60819070 .00000694 00000-0 68935-4 0 9998 2 32788 097.5021 114.6008 0013564 089.2679 271.0096 14.94648301593758 DO-64 1 32789U 08021G 19095.57669255 .00001098 00000-0 77749-4 0 9995 2 32789 097.4729 147.4526 0012776 026.7798 333.4087 15.06764810595702 CO-66 1 32791U 08021J 19095.53648091 .00000217 00000-0 27407-4 0 9997 2 32791 097.5300 104.6410 0014802 121.5957 238.6709 14.90766111592983 RS-30 1 32953U 08025A 19095.84071184 .00000020 00000-0 75656-4 0 9999 2 32953 82.5072 190.6822 0017749 290.7993 69.1186 12.43088581493134 PRISM 1 33493U 09002B 19095.71676257 .00001140 00000-0 10557-3 0 9995 2 33493 98.1229 13.8691 0016671 70.2638 290.0378 14.96564430554083 NOAA-19 1 33591U 09005A 19095.58732802 .00000025 00000-0 38996-4 0 9990 2 33591 099.1766 084.9323 0013247 223.4891 136.5236 14.12342579523189 TISAT-1 1 36799U 10035E 19095.86490359 .00000265 00000-0 32875-4 0 9993 2 36799 98.1444 245.6168 0011492 333.9938 26.0700 14.91042544473769 JUGNU 1 37839U 11058B 19095.30109678 .00000313 00000-0 24978-4 0 9994 2 37839 19.9617 65.8848 0018850 226.4397 278.1199 14.12646195386721 SRMSAT 1 37841U 11058D 19095.45593375 .00000305 00000-0 22331-4 0 9996 2 37841 19.9713 120.1860 0012049 100.9742 45.0496 14.10628053386197 AO-71 1 37854U 11061E 19095.56508685 .00001140 00000-0 66310-4 0 9999 2 37854 101.7119 315.6926 0161219 286.0220 072.3288 15.06235132405389 HRBE 1 37855U 11061F 19095.55498140 .00001206 00000-0 68504-4 0 9993 2 37855 101.7252 313.0631 0174058 296.5656 61.7808 15.05236621405627 ALMASAT-1 1 38078U 12006B 19095.62929569 .00057981 48027-5 36929-3 0 9995 2 38078 69.4252 117.5744 0179829 16.8123 87.8942 15.57459317385935 HORYU-2 1 38340U 12025D 19095.60035709 .00000171 00000-0 33090-4 0 9990 2 38340 098.3379 131.9338 0011477 007.3046 352.8327 14.75687030359825 RS-40 1 38735U 12041C 19095.39115444 .00000025 00000-0 10923-3 0 9994 2 38735 082.4711 274.4120 0017646 038.5184 321.7150 12.42578191303324 BEESAT-3 1 39135U 13015F 19095.59687909 .00000920 00000-0 55748-4 0 9992 2 39135 064.8660 277.7316 0010889 310.2634 049.7539 15.17294224328615 BEESAT-2 1 39136U 13015G 19095.60646390 .00000840 00000-0 52525-4 0 9995 2 39136 064.8678 281.2954 0012085 304.1252 055.8727 15.16736992328542 ZACUBE-1 1 39417U 13066B 19095.86281746 .00000192 00000-0 30699-4 0 9999 2 39417 97.5673 113.4965 0057385 276.1980 83.2698 14.81078230290116 TRITON-1 1 39427U 13066M 19095.90076137 .00000273 00000-0 51190-4 0 9990 2 39427 97.6701 77.8666 0114959 42.3345 318.6662 14.67802575287517 GOMX-1 1 39430U 13066Q 19095.84147693 .00000167 00000-0 38860-4 0 9994 2 39430 97.7386 57.2963 0152109 126.6581 234.8718 14.59214865285834 LO-74 1 39440U 13066AA 19095.57812408 .00000214 00000-0 36919-4 0 9994 2 39440 097.6020 098.3939 0079436 326.7177 032.9052 14.75816954287849 AO-73 1 39444U 13066AE 19095.56633295 .00000256 00000-0 37961-4 0 9996 2 39444 097.5659 115.0875 0056501 271.2172 088.2569 14.81888766288365 SPROUT 1 39770U 14029E 19095.76074655 .00000640 00000-0 77133-4 0 9991 2 39770 97.8794 199.5704 0008368 338.5971 21.4884 14.87238511263848 DUCHIFAT-1 1 40021U 14033M 19095.50134801 .00000326 00000-0 39248-4 0 9995 2 40021 97.9230 19.8597 0011649 298.8770 61.1278 14.90563709260490 NANOSATCBR1 1 40024U 14033Q 19095.89223495 .00000292 00000-0 36334-4 0 9993 2 40024 97.9135 17.8575 0010988 301.1300 58.8839 14.89787250260452 EO-79 1 40025U 14033R 19095.30533311 .00000296 00000-0 37574-4 0 9992 2 40025 97.9067 15.1100 0011339 309.1971 50.8238 14.88895264260252 DTUSAT-2 1 40030U 14033W 19095.48281596 .00000232 00000-0 31058-4 0 9993 2 40030 97.8992 13.5683 0010706 303.7919 56.2277 14.88492410260216 EO-80 1 40032U 14033Y 19095.75437007 .00000269 00000-0 35081-4 0 9995 2 40032 97.8999 13.8401 0010643 303.4897 56.5302 14.88433613260243 ANTELSAT 1 40034U 14033AA 19095.85204664 .00000219 00000-0 40011-4 0 9993 2 40034 97.7720 326.1190 0058251 336.1092 23.7416 14.74066679257795 VELOX-1 1 40057U 14034E 19095.86616680 .00000295 00000-0 48870-4 0 9990 2 40057 98.2227 217.4112 0012469 108.8277 251.4277 14.77615656256864 DAURIA DX 1 1 40071U 14037C 19095.85698299 .00000123 00000-0 23223-4 0 9999 2 40071 98.4133 246.0186 0009939 101.2954 258.9384 14.81248399256327 UKUBE-1 1 40074U 14037F 19095.79997833 .00000298 00000-0 42987-4 0 9992 2 40074 98.4252 253.6020 0006111 92.8972 267.2946 14.83998585256695 HODOYOSHI-1 1 40299U 14070B 19095.81821360 .00000534 00000-0 25456-4 0 9997 2 40299 97.3520 177.0998 0011237 307.3966 170.5584 15.23267248245024 CHUBUSAT-1 1 40300U 14070C 19095.89012243 .00000564 00000-0 27658-4 0 9999 2 40300 97.3338 171.9246 0018785 318.9684 99.6491 15.21974982244792 QSAT-EOS 1 40301U 14070D 19095.86284103 .00001574 00000-0 64229-4 0 9990 2 40301 97.3305 174.5284 0024377 302.2136 163.7925 15.25665599245038 FIREBIRD FU3 1 40377U 15003B 19095.88986015 .00003904 00000-0 15739-3 0 9993 2 40377 99.1064 61.0701 0127534 336.8856 22.6666 15.18474621230729 FIREBIRD FU4 1 40378U 15003C 19095.87730517 .00003880 00000-0 15632-3 0 9992 2 40378 99.1068 61.1275 0127749 336.8129 22.7367 15.18479783230725 GRIFEX 1 40379U 15003D 19095.84093977 .00002883 00000-0 12616-3 0 9993 2 40379 99.1053 55.6060 0135920 354.1116 5.8507 15.15243009230409 NO-84 1 40654U 15025D 19095.44792284 .00009791 00000-0 14037-3 0 05806 2 40654 054.9897 151.1069 0143877 134.6697 226.6159 15.45831794100966 NO-83 1 40655U 15025E 19095.50234491 .00042206 00000-0 26592-3 0 06926 2 40655 054.9713 051.2483 0068449 191.4045 168.6060 15.72982284102029 DEORBITSAIL 1 40719U 15032E 19095.59525635 .00000391 00000-0 63015-4 0 9998 2 40719 097.9170 348.8935 0016078 180.1794 179.9413 14.76675130201320 NUDT-PHONESAT 1 40900U 15049B 19095.77581476 .00002042 00000-0 91072-4 0 9992 2 40900 97.4399 105.8452 0014953 85.1790 3.2700 15.22455748196419 XW-2A 1 40903U 15049E 19095.89890046 .00002102 00000-0 51939-4 0 9999 2 40903 97.3479 138.2186 0015660 56.9322 299.2945 15.41545563198873 XW-2C 1 40906U 15049H 19095.72319686 .00000738 00000-0 42267-4 0 9997 2 40906 97.4675 99.0333 0016881 94.9094 351.7925 15.15568029195790 XW-2D 1 40907U 15049J 19095.71583005 .00000518 00000-0 30564-4 0 9998 2 40907 97.4654 98.7057 0016209 91.9463 27.7718 15.15745696195807 LILACSAT-2 1 40908U 15049K 19095.76032288 .00000160 00000-0 12486-4 0 9992 2 40908 97.4782 97.7120 0017838 96.7648 8.8179 15.13735136195624 XW-2E 1 40909U 15049L 19095.78113426 .00001188 00000-0 62276-4 0 9992 2 40909 97.4600 101.3998 0015650 89.5528 261.2753 15.17610512195971 XW-2F 1 40910U 15049M 19095.74005772 .00001135 00000-0 60458-4 0 9996 2 40910 97.4623 100.5727 0016847 87.2877 358.3685 15.17124838195805 XW-2B 1 40911U 15049N 19095.73887914 .00000832 00000-0 47057-4 0 9995 2 40911 97.4680 99.3565 0016098 92.7657 352.7441 15.15680826195708 DCBB 1 40912U 15049P 19095.75119176 .00001172 00000-0 58428-4 0 9998 2 40912 97.4517 104.0677 0017030 73.1280 12.3614 15.19413980196080 TW-1C 1 40926U 15051B 19095.76783813 .00011843 00000-0 18417-3 0 9991 2 40926 97.1460 142.0812 0006209 285.6252 139.0529 15.54055217198670 TW-1A 1 40928U 15051D 19095.83432791 .00003466 00000-0 87945-4 0 9992 2 40928 97.1543 128.7633 0010530 352.4579 93.8265 15.40294889197806 IO-86 1 40931U 15052B 19095.86189898 .00000734 00000-0 13157-4 0 9996 2 40931 5.9991 223.0838 0012941 191.8280 168.2209 14.76602431190332 LQSat 1 40958U 15057A 19095.79599738 -.00000007 00000-0 65303-5 0 9995 2 40958 97.9049 166.9644 0019632 116.2094 244.1126 14.73071397187925 AO-85 1 40967U 15058D 19095.32824713 .00000036 00000-0 22106-4 0 06518 2 40967 064.7785 024.1965 0207800 225.9333 132.4524 14.75905336096768 ATHENOXAT-1 1 41168U 15077C 19095.17180806 .00002138 00000-0 78648-4 0 9996 2 41168 14.9890 42.1317 0011662 137.9446 222.1771 15.13452761182672 ChubuSat-2 1 41338U 16012B 19095.50124151 .00000374 00000-0 22460-4 0 9994 2 41338 31.0026 256.2492 0013642 88.1138 272.1060 15.00116900171761 ChubuSat-3 1 41339U 16012C 19095.47946472 .00000435 00000-0 27147-4 0 9994 2 41339 31.0094 254.5882 0013523 94.0655 266.1583 15.00295329171754 Horyu-4 1 41340U 16012D 19095.63542015 .00000570 00000-0 36645-4 0 9992 2 41340 31.0043 245.7001 0013825 114.2742 245.9339 15.01207650171870 OUFTI-1 1 41458U 16025C 19095.75572647 .00001664 00000-0 89363-4 0 9993 2 41458 98.1039 178.8571 0166086 245.1974 113.1898 15.05534972161459 e-st@r-II 1 41459U 16025D 19095.75503720 .00001449 00000-0 78890-4 0 9994 2 41459 98.1039 178.5622 0167360 246.3665 111.9917 15.05198611161421 AAUSAT4 1 41460U 16025E 19095.82061198 .00002198 00000-0 11500-3 0 9998 2 41460 98.0996 179.6949 0157794 239.5371 119.0185 15.06965444161542 LO-87 1 41557U 16033B 19095.86975204 .00001592 00000-0 62751-4 0 9992 2 41557 97.4181 183.8111 0013595 192.0946 167.9968 15.27001766158826 NuSat2 1 41558U 16033C 19095.86516707 .00001631 00000-0 60705-4 0 9993 2 41558 97.4204 184.6150 0012588 193.3255 166.7654 15.28900736158851 Lapan A3 1 41603U 16040E 19095.77398184 .00000101 00000-0 79153-5 0 9998 2 41603 97.3697 156.2760 0011764 302.1999 181.1417 15.19684862154515 Swayam 1 41607U 16040J 19095.56265576 .00001651 00000-0 72984-4 0 9992 2 41607 097.3734 158.9701 0011885 294.8195 065.1805 15.23059043154596 Pratham 1 41783U 16059A 19095.59697486 .00000076 00000-0 24051-4 0 9991 2 41783 098.0758 156.7832 0032253 256.3378 103.4232 14.62981377134712 AlSat 1N 1 41789U 16059G 19095.71708202 .00000056 00000-0 19805-4 0 9999 2 41789 98.0783 158.7366 0026872 245.1058 114.7360 14.64226572134821 ScatSat 1 41790U 16059H 19095.58361772 .00000016 00000-0 15143-4 0 9990 2 41790 098.2187 142.4139 0016898 274.5560 085.3705 14.50894505133582 TY-1 1 41844U 16066D 19095.84884439 .00001621 00000-0 69410-4 0 9996 2 41844 97.4069 104.0937 0017276 88.3731 32.2663 15.24101836133443 Pegasus-1 1 41846U 16066F 19095.61396618 .00000361 00000-0 64019-4 0 9990 2 41846 098.7203 134.5993 0368884 098.5866 265.7292 14.37521122125916 CAS-2T 1 41847U 16066G 19095.57495783 .00000119 00000-0 27497-4 0 9999 2 41847 098.7154 135.0835 0367122 095.4280 268.8893 14.37969027126342 EO-88 1 42017U 17008BX 19095.83404837 .00001782 00000-0 73642-4 0 9995 2 42017 97.4099 163.6726 0007879 75.1956 285.0155 15.25288994118660 PHOENIX 1 42706U 98067LP 19095.79628183 .00207909 27965-4 52701-3 0 9995 2 42706 51.6219 285.3605 0005469 259.8070 100.2321 15.95054173108108 ZA-AeroSat 1 42713U 98067LU 19095.82591076 .00128152 17140-4 41653-3 0 9997 2 42713 51.6292 291.7081 0004760 236.2248 123.8305 15.90518182107680 NJUST-1 1 42722U 98067MB 19095.66281044 .00072635 00000-0 30474-3 0 9996 2 42722 51.6375 298.7667 0004157 255.8204 212.4857 15.84872810106644 nSIGHT1 1 42726U 98067MF 19095.87147797 .00024870 00000-0 22122-3 0 9998 2 42726 51.6370 325.5137 0004635 240.6683 119.3851 15.68336559106228 Aoxiang-1 1 42735U 98067MQ 19095.67238969 .00093646 00000-0 35358-3 0 9990 2 42735 51.6297 296.4125 0004554 261.4498 213.4316 15.86949227107803 BeEagleSat 1 42736U 98067MR 19095.78182900 .00290340 46673-4 54478-3 0 9990 2 42736 51.6248 285.2122 0007559 268.5083 91.5061 16.00341615106657 CAS-4B 1 42759U 17034B 19095.83392854 .00000273 00000-0 30271-4 0 9997 2 42759 43.0176 276.4099 0009737 150.9426 339.5956 15.09525645 99673 CAS-4A 1 42761U 17034D 19095.80073476 .00000137 00000-0 21914-4 0 9996 2 42761 43.0193 276.1758 0010224 151.2150 338.7820 15.09601677 99665 UCLSat 1 42765U 17036A 19095.86824203 .00001499 00000-0 67493-4 0 9994 2 42765 97.3596 155.4297 0013012 125.0196 235.2264 15.22547814 99235 NIUSat 1 42766U 17036B 19095.09925159 .00001100 00000-0 52584-4 0 9996 2 42766 97.3597 153.2830 0017314 119.4602 240.8364 15.20946003 98899 LituanicaSAT 2 1 42768U 17036D 19095.51802773 .00002804 00000-0 12368-3 0 9998 2 42768 097.3627 154.6562 0016964 118.7141 241.5802 15.22471062099023 Aalto 1 1 42775U 17036L 19095.72971541 .00000963 00000-0 46126-4 0 9993 2 42775 97.3584 154.2094 0015635 117.0992 243.1841 15.21204085 98960 URSA MAIOR 1 42776U 17036M 19095.69665936 .00001016 00000-0 48321-4 0 9997 2 42776 97.3593 154.3014 0015476 117.1798 243.1018 15.21326543 98962 Max Valier Sat 1 42778U 17036P 19095.56243358 .00001128 00000-0 52558-4 0 9996 2 42778 097.3629 154.8335 0014063 121.3872 238.8742 15.21855664098962 Pegasus 1 42784U 17036V 19095.42046571 .00001334 00000-0 60810-4 0 9995 2 42784 097.3602 154.8361 0013549 127.1490 233.0986 15.22305026098967 NUDATSat 1 42787U 17036Y 19095.59450651 .00001578 00000-0 69657-4 0 9992 2 42787 097.3655 155.5676 0010962 118.5261 241.7083 15.23174135098860 SUCHAI 1 1 42788U 17036Z 19095.44698840 .00001595 00000-0 71302-4 0 9990 2 42788 097.3605 155.1121 0013168 126.2839 233.9617 15.22685418099053 SKCUBE 1 42789U 17036AA 19095.58966566 .00001490 00000-0 67005-4 0 9998 2 42789 097.3601 155.2090 0013036 125.8316 234.4134 15.22600718098997 VZLUSAT 1 1 42790U 17036AB 19095.45004740 .00002191 00000-0 95481-4 0 9991 2 42790 097.3612 155.4284 0012677 125.7491 234.4927 15.23182147098993 VENTA 1 1 42791U 17036AC 19095.56468019 .00001496 00000-0 67187-4 0 9996 2 42791 097.3600 155.2352 0012656 126.2965 233.9442 15.22625627098983 Robusta 1B 1 42792U 17036AD 19095.46276300 .00001480 00000-0 66234-4 0 9991 2 42792 097.3602 155.2132 0012585 126.8122 233.4271 15.22763593098995 D-SAT 1 42794U 17036AF 19095.11722793 .00000253 00000-0 27296-4 0 9999 2 42794 97.5494 143.0609 0127439 30.8714 329.9918 14.91050780 97224 BIRD-J 1 42820U 98067MU 19095.83684489 .00242057 34778-4 53454-3 0 9997 2 42820 51.6253 290.1572 0005811 250.9794 109.0586 15.97527403100055 BIRD-G 1 42821U 98067MV 19095.04575790 .00152285 19731-4 46824-3 0 9993 2 42821 51.6224 298.3853 0004647 229.7658 130.2942 15.91517228 99850 BIRD-M 1 42822U 98067MW 19095.82181470 .00193580 25634-4 50334-3 0 9991 2 42822 51.6269 292.3771 0005302 248.0155 112.0290 15.94605055100001 BIRD-B 1 42823U 98067MX 19095.81240443 .00210373 28622-4 50349-3 0 9993 2 42823 51.6245 291.5272 0006451 248.0494 111.9829 15.96097745100015 BIRD-N 1 42824U 98067MY 19095.81392198 .00180801 23689-4 48444-3 0 9992 2 42824 51.6276 293.1440 0006186 245.9790 114.0570 15.94057009 99982 TechnoSat 1 42829U 17042E 19095.65372683 .00000291 00000-0 34905-4 0 9990 2 42829 97.5727 351.5782 0013095 311.0361 48.9725 14.90942672 93908 TOMSK-TPU 120 1 42910U 98067MZ 19095.87052957 .00041848 00000-0 25254-3 0 9999 2 42910 51.6362 312.2212 0005254 224.8217 229.0203 15.77197242 93359 TANYUSHA 1 1 42911U 98067NA 19095.71862749 .00068280 00000-0 31624-3 0 9998 2 42911 51.6301 306.5786 0003875 251.9641 226.4690 15.82811507 93392 TANYUSHA 2 1 42912U 98067NB 19095.81181505 .00054713 00000-0 28792-3 0 9992 2 42912 51.6355 309.6596 0004319 222.9158 226.2260 15.80134831 93386 TNS 0-2 1 42914U 98067ND 19095.78622460 .00049710 00000-0 29548-3 0 9991 2 42914 51.6364 313.4480 0004883 221.6181 138.4449 15.77464414 93327 QIKCOM-1 1 42983U 98067NF 19095.32681366 .00004415 00000-0 63683-4 0 9999 2 42983 51.6413 353.4317 0003940 197.1015 162.9846 15.58283221 81747 AO-91 1 43017U 17073E 19095.62750490 .00001068 00000-0 88105-4 0 9991 2 43017 097.7228 019.8848 0259624 039.8393 322.1562 14.78447145074314 EcAMSat 1 43019U 98067NG 19095.08120481 .00007927 00000-0 10124-3 0 9991 2 43019 51.6416 351.0749 0004908 176.5614 183.5414 15.60284106164079 PICSAT 1 43132U 18004X 19095.87730678 .00001622 00000-0 71230-4 0 9994 2 43132 97.4951 163.8219 0010783 146.1090 214.0838 15.23358233 68263 AO-92 1 43137U 18004AC 19095.40481343 .00001208 00000-0 53933-4 0 9990 2 43137 97.4944 163.3529 0010241 148.8106 211.3740 15.23293140 68183 TianYi 2 1 43155U 18008A 19095.84684068 .00000372 00000-0 26035-4 0 9995 2 43155 97.4919 169.9254 0016777 213.7528 257.1112 15.11004413 66675 Zhou Enlai 1 43156U 18008B 19095.86984708 .00001101 00000-0 70535-4 0 9997 2 43156 97.4968 169.8547 0013895 210.9674 261.6761 15.10507550 66650 TianYi 6 1 43158U 18008D 19095.76374392 .00000701 00000-0 46831-4 0 9997 2 43158 97.4918 169.3178 0013349 208.8464 267.7138 15.10118525 66609 S-Net G 1 43186U 18014G 19095.81365092 .00000347 00000-0 35541-4 0 9990 2 43186 97.7135 5.3250 0009710 250.3172 109.7003 14.96602405 64083 S-Net H 1 43187U 18014H 19095.74662323 .00000345 00000-0 35384-4 0 9993 2 43187 97.7133 5.2491 0009709 250.5618 109.4555 14.96602309 64074 S-Net J 1 43188U 18014J 19095.88011986 .00000338 00000-0 34725-4 0 9992 2 43188 97.7136 5.3951 0009709 250.1026 109.9149 14.96602466 64099 S-Net K 1 43189U 18014K 19095.88044314 .00000365 00000-0 37123-4 0 9999 2 43189 97.7133 5.3789 0009707 249.9725 110.0452 14.96602045 62648 FMN 1 1 43192U 18015A 19095.60412109 .00002284 00000-0 97145-4 0 9997 2 43192 097.3869 224.3584 0015824 188.8246 171.2734 15.23943115065031 Shaonian Xing 1 43199U 18015H 19095.83871363 .00001772 00000-0 74683-4 0 9993 2 43199 97.3649 223.8658 0016459 200.8919 159.1645 15.24539873 65115 1KUNS-PF 1 43466U 98067NP 19095.13339991 .00024933 00000-0 27056-3 0 9999 2 43466 51.6389 352.1341 0001495 140.8672 219.2431 15.63351107 51249 UBAKUSAT 1 43467U 98067NQ 19094.94133911 .00015847 00000-0 19071-3 0 9994 2 43467 51.6392 355.3449 0003315 137.7263 222.3987 15.61004001 51193 Irazu 1 43468U 98067NR 19095.10644711 .00031917 00000-0 32043-3 0 9999 2 43468 51.6386 350.4447 0001601 144.6669 215.4433 15.65187669151257 EnduroSat One 1 43551U 98067NZ 19094.95465319 .00018918 00000-0 22930-3 0 9999 2 43551 051.6397 357.6792 0005503 214.1202 145.9438 15.60660059041394 EQUISat 1 43552U 98067PA 19095.14185025 .00016119 00000-0 20250-3 0 9999 2 43552 51.6406 357.4384 0005895 215.3218 144.7385 15.59845471 41372 UiTMSat 1 1 43589U 98067PD 19095.14526246 .00018025 00000-0 22656-3 0 9993 2 43589 51.6383 358.1829 0005052 222.0870 137.9736 15.59743335 37108 Maya 1 1 43590U 98067PE 19094.94913512 .00018011 00000-0 22624-3 0 9998 2 43590 51.6386 359.1255 0005279 220.9801 139.0796 15.59758478 37001 Bhutan 1 1 43591U 98067PF 19095.13460868 .00018090 00000-0 22670-3 0 9990 2 43591 051.6393 358.1247 0005230 224.3575 135.7000 15.59817870037039 SiriusSat 1 1 43595U 98067PG 19095.15001144 .00016829 00000-0 21681-3 0 9993 2 43595 051.6385 358.9652 0003872 173.2276 186.8769 15.59149215036200 SiriusSat 2 1 43596U 98067PH 19095.55724587 .00016177 00000-0 20982-3 0 9990 2 43596 051.6395 357.2095 0004436 177.7770 182.3244 15.59000740036264 Tanusha-3 1 43597U 98067PJ 19095.87226985 .00021819 00000-0 26982-3 0 9990 2 43597 51.6379 354.7690 0003761 189.0021 171.0906 15.60036243 36321 SurfSat 1 43614U 18070B 19095.58799224 .00002893 00000-0 79567-4 0 9994 2 43614 093.0318 333.0932 0014091 225.1236 134.8874 15.37173164031022 CP-7 DAVE 1 43615U 18070C 19095.65557681 .00002760 00000-0 76052-4 0 9991 2 43615 93.0324 333.1227 0014214 224.3805 135.6310 15.37119883 31031 ELFIN-B 1 43616U 18070D 19095.62430938 .00004203 00000-0 11396-3 0 9997 2 43616 093.0280 333.0359 0014910 228.8958 131.1009 15.37572087031034 ELFIN-A 1 43617U 18070E 19095.61985358 .00004357 00000-0 11805-3 0 9993 2 43617 093.0337 333.1915 0014096 224.9756 135.0356 15.37603178031039 STARS-Me Mother 1 43640U 98067PQ 19094.95254272 .00012020 00000-0 16844-3 0 9997 2 43640 51.6403 2.1611 0005892 168.2649 191.8482 15.57210752 28074 CubeBel 1 1 43666U 18083E 19095.76745891 .00001014 00000-0 54001-4 0 9996 2 43666 97.5274 120.7309 0017231 86.1912 1.7737 15.17404217 24074 Changshagaoxin 1 43669U 18083H 19095.56365373 .00001071 00000-0 58091-4 0 9996 2 43669 097.5130 120.0584 0012718 080.1830 280.0838 15.16659407023990 Ten-Koh 1 43677U 18084G 19095.89357724 .00000286 00000-0 35358-4 0 9991 2 43677 97.8417 210.1461 0016779 160.3846 199.8005 14.90143514 23625 Diwata-2 1 43678U 18084H 19095.81137762 .00000211 00000-0 26752-4 0 9998 2 43678 97.8407 210.4194 0009872 177.8968 182.2307 14.91537227 23636 IRVINE 01 1 43693U 18088D 19095.48006379 .00003124 00000-0 13823-3 0 9991 2 43693 085.0398 007.1141 0021013 103.4274 256.9311 15.21038569022081 QO-100 1 43700U 18090A 19095.80678983 .00000140 00000-0 00000 0 0 9999 2 43700 0.0180 231.9798 0001893 189.2977 88.7646 1.00271395 1556 Reaktor Hello World 1 43743U 18096AA 19095.83014446 .00001289 00000-0 52215-4 0 9998 2 43743 97.4669 165.8911 0016850 233.2991 237.6773 15.26409789 19460 MinXSS-2 1 43758U 18099A 19095.88021013 .00000874 00000-0 84358-4 0 9992 2 43758 97.7504 168.7869 0015048 208.4495 151.5905 14.95343365 18408 AO-95 1 43770U 18099N 19095.53010135 .00000355 00000-0 37941-4 0 9991 2 43770 97.7506 168.3276 0013874 216.2179 143.8103 14.94707825 18344 RANGE-B 1 43772U 18099Q 19095.85869895 .00000339 00000-0 36477-4 0 9998 2 43772 97.7556 168.7434 0013838 201.8536 158.2096 14.94798189 18386 RANGE-A 1 43773U 18099R 19095.85972730 .00000144 00000-0 18561-4 0 9990 2 43773 97.7453 168.5881 0013131 201.7191 158.3474 14.94759740 18380 MOVE-II 1 43780U 18099Y 19095.84545271 .00000207 00000-0 24213-4 0 9994 2 43780 97.7494 168.6563 0012913 212.8642 147.1777 14.94968937 18373 SNUSat 2 1 43782U 18099AA 19095.43914455 .00000017 00000-0 68244-5 0 9997 2 43782 97.7504 168.2869 0012223 202.7137 157.3544 14.95001020 18325 SnugLite 1 43784U 18099AC 19095.83461793 .00000157 00000-0 19597-4 0 9996 2 43784 97.7470 168.6349 0014394 210.6200 149.4181 14.95077046 18393 ITASat 1 1 43786U 18099AE 19095.49854060 .00000212 00000-0 24616-4 0 9993 2 43786 097.7523 168.3931 0014449 210.6214 149.4165 14.95090399018347 EAGLET 1 1 43790U 18099AJ 19095.60096070 .00000404 00000-0 41684-4 0 9997 2 43790 097.7510 168.5514 0012771 215.0539 144.9843 14.95462733018058 ESEO 1 43792U 18099AL 19095.59874409 .00000185 00000-0 21898-4 0 9998 2 43792 097.7490 168.5283 0012643 212.2157 147.8293 14.95478883018114 CSIM 1 43793U 18099AM 19095.86055774 .00000486 00000-0 48954-4 0 9991 2 43793 97.7447 168.7133 0012690 208.4134 151.6396 14.95597498 18129 Astrocast 0.1 1 43798U 18099AS 19095.78215116 -.00000263 00000-0 -18373-4 0 9992 2 43798 97.7498 168.7537 0012109 194.1562 165.9322 14.95700919 18377 JO-97 1 43803U 18099AX 19095.55642738 .00000651 00000-0 64417-4 0 9997 2 43803 097.7481 168.3995 0014460 210.9926 149.0443 14.95209350018340 Suomi 100 1 43804U 18099AY 19095.82369587 .00000609 00000-0 60586-4 0 9992 2 43804 97.7479 168.6630 0014538 210.2368 149.8015 14.95212014 18395 Al Farabi 2 1 43805U 18099AZ 19095.82148286 .00000801 00000-0 77970-4 0 9993 2 43805 97.7480 168.6667 0014618 210.2874 149.7503 14.95251918 18396 PWSat 2 1 43814U 18099BJ 19095.77282972 .00014442 00000-0 12472-2 0 9998 2 43814 97.7719 168.9003 0012662 173.8315 186.3116 14.97282657 17784 CHOMPTT 1 43855U 18104G 19095.48395225 .00000903 00000-0 37423-4 0 9996 2 43855 085.0343 105.4983 0015553 222.7953 137.2082 15.22227845016737 ISAT 1 43879U 18111D 19095.61353623 .00000558 00000-0 54944-4 0 9994 2 43879 097.7223 004.6762 0011729 272.3311 087.6567 14.95924834014864 UWE-4 1 43880U 18111E 19095.86478324 .00000064 00000-0 10870-4 0 9991 2 43880 97.7233 4.9739 0010997 273.2877 86.7086 14.96170077 12909 Sparrow 1 43881U 18111F 19095.86184786 -.00000016 00000-0 37112-5 0 9995 2 43881 97.7238 4.9824 0011108 272.1414 87.8535 14.96216534 12900 Lume 1 1 43908U 18111AJ 19095.88032217 .00001242 00000-0 53675-4 0 9990 2 43908 97.2952 3.1284 0020065 250.7879 109.1187 15.24164218 15208 FO-98 1 43933U 19003B 19095.70478237 .00000691 00000-0 33631-4 0 9993 2 43933 97.2907 155.6231 0017600 351.5772 126.2136 15.21508973 11807 FO-99 1 43937U 19003F 19095.86928648 .00001250 00000-0 55154-4 0 9996 2 43937 97.2856 155.9369 0023777 336.4655 110.8698 15.23367887 11848 Delphini 1 1 44030U 98067PW 19095.86820839 .00014360 00000-0 21660-3 0 9991 2 44030 51.6401 0.0246 0004129 219.7528 140.3161 15.55022927 10052 MYSat 1 1 44045U 18092F 19095.35936524 .00002572 00000-0 86837-4 0 9990 2 44045 051.6436 010.7589 0012502 171.0611 189.0600 15.34536173007820 AstroCast 0.2 1 44083U 19018F 19095.74525058 .00000799 00000-0 38842-4 0 9992 2 44083 97.4770 156.2825 0012329 266.7611 93.2214 15.21281678 675 AISTechSat 3 1 44103U 19018AB 19095.74173552 .00000998 00000-0 46123-4 0 9995 2 44103 97.4648 156.2632 0012047 288.5089 71.4838 15.22473687 669 AISat 1 1 44104U 19018AC 19095.71921812 .00000906 00000-0 32149-4 0 9995 2 44104 97.5181 156.2691 0058453 330.3285 29.4643 15.30320488 692 M6P 1 44109U 19018AF 19095.74273588 .00001876 00000-0 65097-4 0 9998 2 44109 97.5172 156.2878 0060210 327.5632 151.1172 15.29450352 492 /EX